Hourly Data Report for October 31, 2016

All times are specified in Local Standard Time (LST). Add 1 hour to adjust for Daylight Saving Time where and when it is observed.

PANGNIRTUNG
NUNAVUT

66°08'36.300" N
65°42'40.500" W
22.60 m
2403049
71826
WXP

Download Data

Hourly Data (October 2016)
Hourly Data Report for October 31, 2016
Temp Definition
°C
Dew Point Temp Definition
°C
Rel Hum Definition
%
Wind Dir Definition
10's deg

Wind Spd Definition
km/h
Visibility Definition
km
Stn Press Definition
kPa
Hmdx Definition


Wind Chill Definition


Weather Definition


TIME
00:00 -3.4 -8.0 71 14 22   99.40   -10 LegendNANA
01:00 -3.3 -8.0 70 11 22   99.38   -10 LegendNANA
02:00 -3.5 -7.7 73 11 22   99.38   -10 LegendNANA
03:00 -3.8 -7.2 77 15 17   99.39   -10 LegendNANA
04:00 -4.2 -8.0 75 15 12   99.39   -9 LegendNANA
05:00 -3.7 -6.5 80 23 5   99.41   -6 LegendNANA
06:00 -3.5 -7.7 72 21 19   99.43   -9 LegendNANA
07:00 -3.8 -7.3 77 20 18   99.50   -10 LegendNANA
08:00 -4.2 -8.1 74 22 22   99.57   -11 LegendNANA
09:00 -5.6 -10.3 69 19 19   99.66   -12 LegendNANA
10:00 -4.4 -8.7 71 17 15   99.72   -10 LegendNANA
11:00 -4.9 -7.2 84 17 18   99.75   -11 LegendNANA
12:00 -4.7 -6.9 85 18 18   99.81   -11 LegendNANA
13:00 -4.6 -7.3 81 17 23   99.87   -12 LegendNANA
14:00 -4.9 -7.2 84 18 24   99.92   -12 LegendNANA
15:00 -4.6 -7.5 80 17 20   99.99   -11 LegendNANA
16:00 -5.0 -6.8 88 17 25   100.00   -12 LegendNANA
17:00 -4.1 -6.4 84 17 21   100.01   -11 LegendNANA
18:00 -4.2 -6.3 85 18 22   100.05   -11 LegendNANA
19:00 -3.9 -6.4 83 19 23   100.09   -11 LegendNANA
20:00 -3.5 -6.4 80 21 23   100.14   -10 LegendNANA
21:00 -3.9 -5.8 87 24 19   100.18   -10 LegendNANA
22:00 -4.0 -5.1 92 24 27   100.24   -11 LegendNANA
23:00 -3.8 -6.2 84 24 19   100.28   -10 LegendNANA

Notes on Data Quality.

Legend

  • E = Estimated
  • M = Missing
  • NA = Not Available
  • ‡ = Partner data that is not subject to review by the National Climate Archives
Date modified: